Terminal Aerodrome Forecast
Issued by NWS

Home | Current Version | Previous Version | Text Only | Print | Product List | Glossary On
Versions: 1 2 3 4 5 6 7 8 9 10 11 12 13 14 15 16 17 18 19 20 21 22 23 24 25 26 27 28
262
FTUS41 KBTV 090800 AAB
TAFSLK
TAF AMD
KSLK 090800Z 0908/1006 29009KT P6SM BKN017 OVC025
      TEMPO 0908/0912 6SM -SHSN SCT015 OVC025
     FM091200 29010G19KT P6SM VCSH SCT015 OVC025
     FM091500 30011G21KT P6SM VCSH OVC025
     FM092200 29011G20KT P6SM VCSH OVC035
     FM100300 30007KT P6SM BKN040=

USA.gov is the U.S. government's official web portal to all federal, state and local government web resources and services.